Location: Burbank
(38.7788°N, 114.0429°W)
Time: 23:08:35
(UTC+00:00)

S-56A Canister/Altair - Pass Details

Date: 13 May 2026
Orbit: 633 x 2484 km, 38.9° (Epoch: 1 June)

Event Time Altitude Azimuth Distance (km) Brightness Sun altitude
Rises 03:25:16 0° 218° (SW) 3,121 10.7 -8.7°
Reaches altitude 10° 03:28:07 10° 204° (SSW) 2,079 9.7 -9.2°
Maximum altitude 03:31:47 24° 150° (SSE) 1,316 8.2 -9.8°
Enters shadow 03:35:11 11° 97° (E) 1,965 9.1 -10.4°
Drops below altitude 10° 03:35:23 10° 96° (E) 2,033 - -10.4°
Sets 03:38:08 0° 82° (E) 3,032 - -10.8°
